Flag for Poland Weather past 2 weeks in Bydgoszcz, Poland

Now
59 °F

Scattered clouds.


Feels Like: 59 °F
Forecast: 46 / 73 °F
Wind: 2 mph from South

Location: Torun


UV Index: 3 (Moderate)

Visibility: 22 mi


Pressure: 29.85 "Hg

Humidity: 34%

Dew point: 31 °F

Location of BydgoszczLocation

Historic Weather in Bydgoszcz

°F

Bydgoszcz temperature yesterday

Maximum temperature yesterday: 55 °F (at 4:00 PM)
Minimum temperature yesterday: 24 °F (at 6:00 AM)
Average temperature yesterday: 41 °F

Past Weeks' High & Low Weather Summary

 TemperatureHumidityPressure
High73 °F (Apr 8, 2:00 PM)100% (Apr 11, 4:00 AM)30.42 "Hg (Apr 11, 4:00 AM)
Low24 °F (Apr 17, 6:00 AM)29% (Apr 5, 6:00 PM)29.60 "Hg (Apr 14, 3:00 PM)
Average47 °F71%30.00 "Hg
* Reported Apr 3 6:00 PM — Apr 18 6:00 PM, Bydgoszcz, Weather by CustomWeather, © 2014

Note: Actual official high and low records may vary slightly from our data, if they occured in-between our weather recording intervals... More about our weather records

Advertising

Historic Weather Conditions — Data for Previous 24 hours

 ConditionsComfort  
Time TempWeatherWind HumidityBarometerVisibility
6:00 PM
Apr 18
59 °FScattered clouds.2 mph34%29.85 "Hg22 mi
5:00 PM61 °FScattered clouds.2 mph29%29.84 "Hg19 mi
4:00 PM61 °FPartly sunny.2 mph31%29.83 "Hg18 mi
3:00 PM61 °FPartly sunny.3 mph32%29.82 "Hg17 mi
2:00 PM61 °FPartly sunny.3 mph35%29.80 "Hg16 mi
1:00 PM60 °FScattered clouds.5 mph34%29.80 "Hg19 mi
12:00 PM59 °FPartly sunny.3 mph34%29.79 "Hg22 mi
11:00 AM58 °FPartly sunny.5 mph41%29.79 "Hg19 mi
10:00 AM55 °FPartly sunny.5 mph44%29.80 "Hg16 mi
9:00 AM50 °FPartly sunny.5 mph53%29.80 "Hg19 mi
8:00 AM47 °FPartly sunny.3 mph62%29.81 "Hg11 mi
7:00 AM41 °FPartly sunny.3 mph74%29.83 "Hg11 mi
6:00 AM39 °FPartly sunny.2 mph77%29.84 "Hg10 mi
5:00 AM40 °FOvercast.2 mph72%29.85 "Hg12 mi
4:00 AM40 °FOvercast.2 mph73%29.87 "Hg11 mi
3:00 AM40 °FPassing clouds.2 mph73%29.89 "Hg10 mi
2:00 AM42 °FPassing clouds.2 mph67%29.92 "Hg10 mi
Weather by CustomWeather, © 2014

See weather overview